CYKG

Kangiqsujuaq (Wakeham Bay) Airport

ICAO Code CYKG
IATA Code
Name Kangiqsujuaq (Wakeham Bay) Airport
Location Kangiqsujuaq, Quebec, CA
Elevation 517 Feet / 157.6 Meters
Latitude 61.58861111
Longitude -71.92944444
METAR CYKG 241400Z 29007KT 15SM FEW023 FEW250 M01/M05 A2988 RMK SC1CS1 CS TR LST OB/ NEXT 251200UTC SLP134
Extra information Display Charts and CFS
Display NOTAMS
Runway Length Width Surface Elevation
15 3520 ft 100 ft GRAVEL 517 ft
33 3520 ft 100 ft GRAVEL 478 ft